Time,TemperatureF,DewpointF,PressureIn,WindDirection,WindDirectionDegrees,WindSpeedMPH,WindSpeedGustMPH,Humidity,HourlyPrecipIn,Conditions,Clouds,dailyrainin,SoftwareType,DateUTC
2014-09-15 00:01:00,52.5,44.8,29.42,SSW,202,0.0,0.0,75,0.00,,,0.00,WUHU21623XXSP,2014-09-15 04:01:00,
2014-09-15 00:06:00,52.3,44.7,29.42,SSW,202,0.0,0.0,75,0.00,,,0.00,WUHU21623XXSP,2014-09-15 04:06:00,
2014-09-15 00:11:00,52.3,44.7,29.42,SSW,202,0.0,0.0,75,0.00,,,0.00,WUHU21623XXSP,2014-09-15 04:11:00,
2014-09-15 00:17:00,52.2,44.5,29.42,SSW,202,0.0,0.0,75,0.00,,,0.00,WUHU21623XXSP,2014-09-15 04:17:00,
2014-09-15 00:22:00,52.0,44.3,29.41,SSW,202,0.0,0.0,75,0.00,,,0.00,WUHU21623XXSP,2014-09-15 04:22:00,
2014-09-15 00:27:00,52.0,44.3,29.42,SSW,202,0.0,0.0,75,0.00,,,0.00,WUHU21623XXSP,2014-09-15 04:27:00,
2014-09-15 00:32:00,51.8,44.5,29.41,SSW,202,0.0,0.0,76,0.00,,,0.00,WUHU21623XXSP,2014-09-15 04:32:00,
2014-09-15 00:37:00,51.6,44.3,29.41,SSW,202,0.0,0.0,76,0.00,,,0.00,WUHU21623XXSP,2014-09-15 04:37:00,
2014-09-15 00:42:00,51.4,44.1,29.41,SSW,202,0.0,0.0,76,0.00,,,0.00,WUHU21623XXSP,2014-09-15 04:42:00,
2014-09-15 00:47:00,51.3,44.3,29.41,SSW,202,0.0,0.0,77,0.00,,,0.00,WUHU21623XXSP,2014-09-15 04:47:00,
2014-09-15 00:52:00,51.3,44.3,29.42,SSW,202,0.0,0.0,77,0.00,,,0.00,WUHU21623XXSP,2014-09-15 04:52:00,
2014-09-15 00:57:00,51.3,44.3,29.41,SSW,202,0.0,0.0,77,0.00,,,0.00,WUHU21623XXSP,2014-09-15 04:57:00,
2014-09-15 01:02:00,51.3,44.3,29.42,SSW,202,0.0,0.0,77,0.00,,,0.00,WUHU21623XXSP,2014-09-15 05:02:00,
2014-09-15 01:07:00,51.1,44.1,29.41,SSW,202,0.0,0.0,77,0.00,,,0.00,WUHU21623XXSP,2014-09-15 05:07:00,
2014-09-15 01:12:00,51.1,44.1,29.41,SSW,202,0.0,0.0,77,0.00,,,0.00,WUHU21623XXSP,2014-09-15 05:12:00,
2014-09-15 01:17:00,51.1,44.1,29.42,SSW,202,0.0,0.0,77,0.00,,,0.00,WUHU21623XXSP,2014-09-15 05:17:00,
2014-09-15 01:22:00,50.9,43.9,29.41,SE,135,0.0,0.0,77,0.00,,,0.00,WUHU21623XXSP,2014-09-15 05:22:00,
2014-09-15 01:27:00,50.9,43.9,29.41,SSE,157,0.0,0.0,77,0.00,,,0.00,WUHU21623XXSP,2014-09-15 05:27:00,
2014-09-15 01:32:00,50.7,43.8,29.41,South,180,0.0,0.0,77,0.00,,,0.00,WUHU21623XXSP,2014-09-15 05:32:00,
2014-09-15 01:37:00,50.7,43.8,29.41,South,180,0.0,0.0,77,0.00,,,0.00,WUHU21623XXSP,2014-09-15 05:37:00,
2014-09-15 01:42:00,50.7,43.8,29.41,South,180,0.0,0.0,77,0.00,,,0.00,WUHU21623XXSP,2014-09-15 05:42:00,
2014-09-15 01:47:00,50.7,43.8,29.41,South,180,0.0,0.0,77,0.00,,,0.00,WUHU21623XXSP,2014-09-15 05:47:00,
2014-09-15 01:52:00,50.5,43.6,29.41,South,180,0.0,0.0,77,0.00,,,0.00,WUHU21623XXSP,2014-09-15 05:52:00,
2014-09-15 01:57:00,50.5,43.6,29.41,South,180,0.0,0.0,77,0.00,,,0.00,WUHU21623XXSP,2014-09-15 05:57:00,
2014-09-15 02:02:00,50.5,43.9,29.42,South,180,0.0,0.0,78,0.00,,,0.00,WUHU21623XXSP,2014-09-15 06:02:00,
2014-09-15 02:03:00,50.4,43.7,29.42,South,180,0.0,0.0,78,0.00,,,0.00,WUHU21623XXSP,2014-09-15 06:03:00,
2014-09-15 02:08:00,50.2,43.6,29.42,South,180,0.0,0.0,78,0.00,,,0.00,WUHU21623XXSP,2014-09-15 06:08:00,
2014-09-15 02:13:00,50.2,43.6,29.41,South,180,0.0,0.0,78,0.00,,,0.00,WUHU21623XXSP,2014-09-15 06:13:00,
2014-09-15 02:18:00,50.2,43.6,29.42,South,180,0.0,0.0,78,0.00,,,0.00,WUHU21623XXSP,2014-09-15 06:18:00,
2014-09-15 02:23:00,49.8,43.2,29.41,South,180,0.0,0.0,78,0.00,,,0.00,WUHU21623XXSP,2014-09-15 06:23:00,
2014-09-15 02:28:00,49.8,43.2,29.41,South,180,0.0,0.0,78,0.00,,,0.00,WUHU21623XXSP,2014-09-15 06:28:00,
2014-09-15 02:33:00,49.8,43.5,29.41,South,180,0.0,0.0,79,0.00,,,0.00,WUHU21623XXSP,2014-09-15 06:33:00,
2014-09-15 02:38:00,49.8,43.5,29.41,South,180,0.0,0.0,79,0.00,,,0.00,WUHU21623XXSP,2014-09-15 06:38:00,
2014-09-15 02:43:00,49.8,43.5,29.41,South,180,0.0,0.0,79,0.00,,,0.00,WUHU21623XXSP,2014-09-15 06:43:00,
2014-09-15 02:48:00,49.8,43.5,29.41,South,180,0.0,0.0,79,0.00,,,0.00,WUHU21623XXSP,2014-09-15 06:48:00,
2014-09-15 02:53:00,49.6,43.4,29.41,South,180,0.0,0.0,79,0.00,,,0.00,WUHU21623XXSP,2014-09-15 06:53:00,
2014-09-15 02:58:00,49.6,43.4,29.41,South,180,0.0,0.0,79,0.00,,,0.00,WUHU21623XXSP,2014-09-15 06:58:00,
2014-09-15 03:03:00,49.6,43.4,29.41,South,180,0.0,0.0,79,0.00,,,0.00,WUHU21623XXSP,2014-09-15 07:03:00,
2014-09-15 03:08:00,49.5,43.2,29.41,South,180,0.0,0.0,79,0.00,,,0.00,WUHU21623XXSP,2014-09-15 07:08:00,
2014-09-15 03:13:00,49.3,43.0,29.41,South,180,0.0,0.0,79,0.00,,,0.00,WUHU21623XXSP,2014-09-15 07:13:00,
2014-09-15 03:18:00,49.3,43.0,29.41,South,180,0.0,0.0,79,0.00,,,0.00,WUHU21623XXSP,2014-09-15 07:18:00,
2014-09-15 03:23:00,49.3,43.0,29.41,South,180,0.0,0.0,79,0.00,,,0.00,WUHU21623XXSP,2014-09-15 07:23:00,
2014-09-15 03:28:00,49.3,43.0,29.41,South,180,0.0,0.0,79,0.00,,,0.00,WUHU21623XXSP,2014-09-15 07:28:00,
2014-09-15 03:33:00,49.6,43.4,29.41,South,180,0.0,0.0,79,0.00,,,0.00,WUHU21623XXSP,2014-09-15 07:33:00,
2014-09-15 03:38:00,49.6,43.4,29.42,South,180,0.0,0.0,79,0.00,,,0.00,WUHU21623XXSP,2014-09-15 07:38:00,
2014-09-15 03:43:00,49.6,43.4,29.41,South,180,0.0,0.0,79,0.00,,,0.00,WUHU21623XXSP,2014-09-15 07:43:00,
2014-09-15 03:48:00,49.6,43.7,29.41,South,180,0.0,0.0,80,0.00,,,0.00,WUHU21623XXSP,2014-09-15 07:48:00,
2014-09-15 03:53:00,49.6,43.4,29.42,South,180,0.0,0.0,79,0.00,,,0.00,WUHU21623XXSP,2014-09-15 07:53:00,
2014-09-15 03:58:00,49.6,43.7,29.42,South,180,0.0,0.0,80,0.00,,,0.00,WUHU21623XXSP,2014-09-15 07:58:00,
2014-09-15 04:03:00,49.5,43.5,29.42,South,180,0.0,0.0,80,0.00,,,0.00,WUHU21623XXSP,2014-09-15 08:03:00,
2014-09-15 04:04:00,49.5,43.5,29.42,South,180,0.0,0.0,80,0.00,,,0.00,WUHU21623XXSP,2014-09-15 08:04:00,
2014-09-15 04:09:00,49.3,43.3,29.42,South,180,0.0,0.0,80,0.00,,,0.00,WUHU21623XXSP,2014-09-15 08:09:00,
2014-09-15 04:14:00,49.3,43.3,29.41,South,180,0.0,0.0,80,0.00,,,0.00,WUHU21623XXSP,2014-09-15 08:14:00,
2014-09-15 04:19:00,49.3,43.3,29.41,South,180,0.0,0.0,80,0.00,,,0.00,WUHU21623XXSP,2014-09-15 08:19:00,
2014-09-15 04:24:00,49.3,43.3,29.41,South,180,0.0,0.0,80,0.00,,,0.00,WUHU21623XXSP,2014-09-15 08:24:00,
2014-09-15 04:29:00,49.3,43.3,29.41,South,180,0.0,0.0,80,0.00,,,0.00,WUHU21623XXSP,2014-09-15 08:29:00,
2014-09-15 04:34:00,49.3,43.3,29.41,South,180,0.0,0.0,80,0.00,,,0.00,WUHU21623XXSP,2014-09-15 08:34:00,
2014-09-15 04:40:00,49.3,43.3,29.41,South,180,0.0,0.0,80,0.00,,,0.00,WUHU21623XXSP,2014-09-15 08:40:00,
2014-09-15 04:44:00,49.1,43.2,29.41,South,180,0.0,0.0,80,0.00,,,0.00,WUHU21623XXSP,2014-09-15 08:44:00,
2014-09-15 04:50:00,48.9,43.0,29.41,South,180,0.0,0.0,80,0.00,,,0.00,WUHU21623XXSP,2014-09-15 08:50:00,
2014-09-15 04:55:00,48.9,43.0,29.41,South,180,0.0,0.0,80,0.00,,,0.00,WUHU21623XXSP,2014-09-15 08:55:00,
2014-09-15 05:00:00,48.7,42.8,29.41,South,180,0.0,0.0,80,0.00,,,0.00,WUHU21623XXSP,2014-09-15 09:00:00,
2014-09-15 05:05:00,48.7,42.8,29.41,South,180,0.0,0.0,80,0.00,,,0.00,WUHU21623XXSP,2014-09-15 09:05:00,
2014-09-15 05:10:00,48.7,42.8,29.41,South,180,0.0,0.0,80,0.00,,,0.00,WUHU21623XXSP,2014-09-15 09:10:00,
2014-09-15 05:15:00,48.7,42.8,29.41,South,180,0.0,0.0,80,0.00,,,0.00,WUHU21623XXSP,2014-09-15 09:15:00,
2014-09-15 05:20:00,48.7,43.1,29.41,South,180,0.0,0.0,81,0.00,,,0.00,WUHU21623XXSP,2014-09-15 09:20:00,
2014-09-15 05:25:00,48.7,43.1,29.42,SSW,202,0.0,0.0,81,0.00,,,0.00,WUHU21623XXSP,2014-09-15 09:25:00,
2014-09-15 05:30:00,48.7,43.1,29.42,SSW,202,0.0,0.0,81,0.00,,,0.00,WUHU21623XXSP,2014-09-15 09:30:00,
2014-09-15 05:35:00,48.7,43.1,29.41,South,180,0.0,0.0,81,0.00,,,0.00,WUHU21623XXSP,2014-09-15 09:35:00,
2014-09-15 05:40:00,48.7,43.1,29.42,South,180,0.0,0.0,81,0.00,,,0.00,WUHU21623XXSP,2014-09-15 09:40:00,
2014-09-15 05:45:00,48.9,43.3,29.42,South,180,0.0,0.0,81,0.00,,,0.00,WUHU21623XXSP,2014-09-15 09:45:00,
2014-09-15 05:50:00,49.1,43.8,29.42,South,180,0.0,0.0,82,0.00,,,0.00,WUHU21623XXSP,2014-09-15 09:50:00,
2014-09-15 05:55:00,49.1,43.8,29.42,South,180,0.0,0.0,82,0.00,,,0.00,WUHU21623XXSP,2014-09-15 09:55:00,
2014-09-15 06:00:00,49.3,44.0,29.41,SE,135,0.0,0.0,82,0.00,,,0.00,WUHU21623XXSP,2014-09-15 10:00:00,
2014-09-15 06:05:00,49.3,44.0,29.41,SE,135,0.0,0.0,82,0.00,,,0.00,WUHU21623XXSP,2014-09-15 10:05:00,
2014-09-15 06:10:00,49.3,44.0,29.41,SE,135,0.0,0.0,82,0.00,,,0.00,WUHU21623XXSP,2014-09-15 10:10:00,
2014-09-15 06:15:00,49.5,44.1,29.41,SE,135,0.0,0.0,82,0.00,,,0.00,WUHU21623XXSP,2014-09-15 10:15:00,
2014-09-15 06:20:00,49.6,44.3,29.41,SE,135,0.0,0.0,82,0.00,,,0.00,WUHU21623XXSP,2014-09-15 10:20:00,
2014-09-15 06:25:00,49.6,44.3,29.41,SE,135,0.0,0.0,82,0.00,,,0.00,WUHU21623XXSP,2014-09-15 10:25:00,
2014-09-15 06:30:00,49.6,44.3,29.41,SW,225,0.0,0.0,82,0.00,,,0.00,WUHU21623XXSP,2014-09-15 10:30:00,
2014-09-15 06:35:00,49.6,44.3,29.42,WSW,247,0.0,0.0,82,0.00,,,0.00,WUHU21623XXSP,2014-09-15 10:35:00,
2014-09-15 06:40:00,49.6,44.3,29.42,WSW,247,0.0,0.0,82,0.00,,,0.00,WUHU21623XXSP,2014-09-15 10:40:00,
2014-09-15 06:45:00,49.8,44.5,29.41,WSW,247,0.0,0.0,82,0.00,,,0.00,WUHU21623XXSP,2014-09-15 10:45:00,
2014-09-15 06:50:00,49.8,44.5,29.42,WSW,247,0.0,0.0,82,0.00,,,0.00,WUHU21623XXSP,2014-09-15 10:50:00,
2014-09-15 06:55:00,49.8,44.5,29.42,WSW,247,0.0,0.0,82,0.00,,,0.00,WUHU21623XXSP,2014-09-15 10:55:00,
2014-09-15 07:00:00,49.8,44.5,29.41,SW,225,0.0,0.0,82,0.00,,,0.00,WUHU21623XXSP,2014-09-15 11:00:00,
2014-09-15 07:05:00,49.8,44.5,29.41,SW,225,0.0,0.0,82,0.00,,,0.00,WUHU21623XXSP,2014-09-15 11:05:00,
2014-09-15 07:10:00,49.8,44.8,29.42,SW,225,0.0,0.0,83,0.00,,,0.00,WUHU21623XXSP,2014-09-15 11:10:00,
2014-09-15 07:15:00,49.8,44.5,29.41,SW,225,0.0,0.0,82,0.00,,,0.00,WUHU21623XXSP,2014-09-15 11:15:00,
2014-09-15 07:20:00,49.8,44.5,29.41,SSE,157,0.0,0.0,82,0.00,,,0.00,WUHU21623XXSP,2014-09-15 11:20:00,
2014-09-15 07:25:00,49.8,44.5,29.41,SSE,157,0.0,0.0,82,0.00,,,0.00,WUHU21623XXSP,2014-09-15 11:25:00,
2014-09-15 07:30:00,49.8,44.5,29.41,SSE,157,0.0,0.0,82,0.00,,,0.00,WUHU21623XXSP,2014-09-15 11:30:00,
2014-09-15 07:34:00,49.8,44.5,29.41,SSE,157,0.0,0.0,82,0.00,,,0.00,WUHU21623XXSP,2014-09-15 11:34:00,
2014-09-15 07:39:00,49.8,44.5,29.40,SSE,157,0.0,0.0,82,0.00,,,0.00,WUHU21623XXSP,2014-09-15 11:39:00,
2014-09-15 07:44:00,49.8,44.5,29.39,SSE,157,0.0,0.0,82,0.00,,,0.00,WUHU21623XXSP,2014-09-15 11:44:00,
2014-09-15 07:49:00,49.8,44.5,29.39,SE,135,0.0,0.0,82,0.00,,,0.00,WUHU21623XXSP,2014-09-15 11:49:00,
2014-09-15 07:54:00,49.8,44.5,29.39,SE,135,0.0,0.0,82,0.00,,,0.00,WUHU21623XXSP,2014-09-15 11:54:00,
2014-09-15 07:57:00,49.8,44.5,29.39,SE,135,0.0,0.0,82,0.00,,,0.00,WUHU21623XXSP,2014-09-15 11:57:00,
2014-09-15 08:02:00,49.8,44.5,29.39,SE,135,0.0,0.0,82,0.00,,,0.00,WUHU21623XXSP,2014-09-15 12:02:00,
2014-09-15 08:07:00,49.8,44.5,29.39,SE,135,0.0,0.0,82,0.00,,,0.00,WUHU21623XXSP,2014-09-15 12:07:00,
2014-09-15 08:12:00,49.8,44.5,29.39,SE,135,0.0,0.0,82,0.00,,,0.00,WUHU21623XXSP,2014-09-15 12:12:00,
2014-09-15 08:17:00,50.2,44.9,29.39,ESE,112,0.0,0.0,82,0.00,,,0.00,WUHU21623XXSP,2014-09-15 12:17:00,
2014-09-15 08:22:00,50.2,44.9,29.41,ENE,67,0.0,0.0,82,0.00,,,0.00,WUHU21623XXSP,2014-09-15 12:22:00,
2014-09-15 08:27:00,50.2,44.9,29.41,ENE,67,0.0,0.0,83,0.00,,,0.00,WUHU21623XXSP,2014-09-15 12:27:00,
2014-09-15 08:32:00,50.4,45.3,29.41,NE,45,0.0,0.0,83,0.00,,,0.00,WUHU21623XXSP,2014-09-15 12:32:00,
2014-09-15 08:37:00,50.7,45.7,29.41,NE,45,0.0,0.0,83,0.00,,,0.00,WUHU21623XXSP,2014-09-15 12:37:00,
2014-09-15 08:42:00,51.1,46.1,29.40,ESE,112,0.0,0.0,83,0.00,,,0.00,WUHU21623XXSP,2014-09-15 12:42:00,
2014-09-15 08:47:00,51.6,46.6,29.40,ESE,112,0.0,0.0,83,0.00,,,0.00,WUHU21623XXSP,2014-09-15 12:47:00,
2014-09-15 08:52:00,52.0,46.8,29.40,ESE,112,0.0,0.0,83,0.00,,,0.00,WUHU21623XXSP,2014-09-15 12:52:00,
2014-09-15 08:55:00,52.2,47.1,29.40,ESE,112,0.0,0.0,83,0.00,,,0.00,WUHU21623XXSP,2014-09-15 12:55:00,
2014-09-15 09:00:00,52.3,47.3,29.41,SSE,157,0.0,0.0,83,0.00,,,0.00,WUHU21623XXSP,2014-09-15 13:00:00,
2014-09-15 09:05:00,52.7,47.5,29.41,SSW,202,0.0,0.0,83,0.00,,,0.00,WUHU21623XXSP,2014-09-15 13:05:00,
2014-09-15 09:10:00,52.9,47.9,29.41,SW,225,0.0,0.0,83,0.00,,,0.00,WUHU21623XXSP,2014-09-15 13:10:00,
2014-09-15 09:15:00,53.8,48.7,29.41,SW,225,0.0,0.0,83,0.00,,,0.00,WUHU21623XXSP,2014-09-15 13:15:00,
2014-09-15 09:20:00,54.1,48.8,29.41,SW,225,0.0,0.0,82,0.00,,,0.00,WUHU21623XXSP,2014-09-15 13:20:00,
2014-09-15 09:25:00,54.5,49.4,29.41,SSE,157,0.0,0.0,83,0.00,,,0.00,WUHU21623XXSP,2014-09-15 13:25:00,
2014-09-15 09:30:00,55.0,49.7,29.40,SE,135,0.0,0.0,82,0.00,,,0.00,WUHU21623XXSP,2014-09-15 13:30:00,
2014-09-15 09:35:00,55.2,49.7,29.40,SE,135,0.0,0.0,82,0.00,,,0.00,WUHU21623XXSP,2014-09-15 13:35:00,
2014-09-15 09:40:00,55.9,50.5,29.40,South,180,0.7,0.7,82,0.00,,,0.00,WUHU21623XXSP,2014-09-15 13:40:00,
2014-09-15 09:45:00,56.5,51.0,29.40,SE,135,0.0,0.7,82,0.00,,,0.00,WUHU21623XXSP,2014-09-15 13:45:00,
2014-09-15 09:50:00,56.8,51.4,29.41,South,180,0.0,0.0,82,0.00,,,0.00,WUHU21623XXSP,2014-09-15 13:50:00,
2014-09-15 09:55:00,56.8,51.0,29.40,SE,135,0.0,0.0,81,0.00,,,0.00,WUHU21623XXSP,2014-09-15 13:55:00,
2014-09-15 10:00:00,56.8,51.0,29.40,SE,135,0.0,0.0,81,0.00,,,0.00,WUHU21623XXSP,2014-09-15 14:00:00,
2014-09-15 10:05:00,56.8,51.0,29.40,SSE,157,0.0,0.0,81,0.00,,,0.00,WUHU21623XXSP,2014-09-15 14:05:00,
2014-09-15 10:10:00,57.0,51.2,29.41,ESE,112,0.0,0.0,81,0.00,,,0.00,WUHU21623XXSP,2014-09-15 14:10:00,
2014-09-15 10:15:00,57.0,51.2,29.41,ESE,112,0.0,0.0,81,0.00,,,0.00,WUHU21623XXSP,2014-09-15 14:15:00,
2014-09-15 10:20:00,57.2,51.4,29.42,West,270,0.0,0.0,81,0.00,,,0.00,WUHU21623XXSP,2014-09-15 14:20:00,
2014-09-15 10:25:00,57.4,51.6,29.42,WNW,292,0.0,0.0,81,0.00,,,0.00,WUHU21623XXSP,2014-09-15 14:25:00,
2014-09-15 10:30:00,57.6,51.3,29.43,WNW,292,0.0,0.0,80,0.00,,,0.00,WUHU21623XXSP,2014-09-15 14:30:00,
2014-09-15 10:35:00,57.6,51.4,29.44,NW,315,0.0,0.0,80,0.00,,,0.00,WUHU21623XXSP,2014-09-15 14:35:00,
2014-09-15 10:40:00,57.7,51.9,29.44,WNW,292,0.0,0.0,81,0.00,,,0.00,WUHU21623XXSP,2014-09-15 14:40:00,
2014-09-15 10:45:00,57.7,51.6,29.44,West,270,0.0,0.0,80,0.00,,,0.00,WUHU21623XXSP,2014-09-15 14:45:00,
2014-09-15 10:50:00,57.9,52.1,29.43,NNW,337,0.0,0.0,81,0.00,,,0.00,WUHU21623XXSP,2014-09-15 14:50:00,
2014-09-15 10:55:00,57.7,51.9,29.42,NE,45,0.0,0.0,81,0.00,,,0.00,WUHU21623XXSP,2014-09-15 14:55:00,
2014-09-15 11:00:00,57.9,51.8,29.42,NE,45,0.0,0.0,80,0.00,,,0.00,WUHU21623XXSP,2014-09-15 15:00:00,
2014-09-15 11:05:00,58.1,51.8,29.41,NE,45,0.0,0.0,81,0.00,,,0.00,WUHU21623XXSP,2014-09-15 15:05:00,
2014-09-15 11:10:00,58.5,52.7,29.40,NE,45,2.2,2.2,81,0.00,,,0.00,WUHU21623XXSP,2014-09-15 15:10:00,
2014-09-15 11:15:00,58.8,53.0,29.40,NE,45,0.0,2.2,80,0.00,,,0.00,WUHU21623XXSP,2014-09-15 15:15:00,
2014-09-15 11:20:00,59.2,52.9,29.39,NE,45,0.0,2.2,80,0.00,,,0.00,WUHU21623XXSP,2014-09-15 15:20:00,
2014-09-15 11:25:00,59.4,52.9,29.38,SE,135,3.1,3.1,79,0.00,,,0.00,WUHU21623XXSP,2014-09-15 15:25:00,
2014-09-15 11:28:00,59.4,52.9,29.37,SE,135,0.0,3.1,79,0.00,,,0.00,WUHU21623XXSP,2014-09-15 15:28:00,
2014-09-15 11:33:00,59.2,52.9,29.36,SSE,157,0.7,3.1,79,0.00,,,0.00,WUHU21623XXSP,2014-09-15 15:33:00,
2014-09-15 11:38:00,59.2,52.3,29.35,ESE,112,2.0,2.0,78,0.00,,,0.00,WUHU21623XXSP,2014-09-15 15:38:00,
2014-09-15 11:43:00,58.8,52.0,29.35,East,90,0.0,3.6,78,0.00,,,0.00,WUHU21623XXSP,2014-09-15 15:43:00,
2014-09-15 11:48:00,58.8,52.0,29.34,East,90,0.0,3.6,79,0.00,,,0.00,WUHU21623XXSP,2014-09-15 15:48:00,
2014-09-15 11:53:00,58.8,52.3,29.35,East,90,0.0,0.0,79,0.00,,,0.00,WUHU21623XXSP,2014-09-15 15:53:00,
2014-09-15 11:58:00,58.8,52.3,29.36,East,90,0.0,0.0,79,0.00,,,0.00,WUHU21623XXSP,2014-09-15 15:58:00,
2014-09-15 12:03:00,58.8,52.3,29.35,East,90,0.0,0.0,79,0.00,,,0.00,WUHU21623XXSP,2014-09-15 16:03:00,
2014-09-15 12:08:00,58.8,52.3,29.35,East,90,0.0,0.0,79,0.00,,,0.00,WUHU21623XXSP,2014-09-15 16:08:00,
2014-09-15 12:13:00,58.8,52.3,29.34,East,90,0.0,0.0,79,0.00,,,0.00,WUHU21623XXSP,2014-09-15 16:13:00,
2014-09-15 13:45:00,57.2,52.4,29.39,SSW,202,0.0,0.0,84,0.00,,,0.00,WUHU21623XXSP,2014-09-15 17:45:00,
2014-09-15 13:50:00,57.7,52.2,29.39,SW,225,0.0,0.0,83,0.00,,,0.00,WUHU21623XXSP,2014-09-15 17:50:00,
2014-09-15 13:55:00,58.1,52.8,29.39,SW,225,0.0,0.0,83,0.00,,,0.00,WUHU21623XXSP,2014-09-15 17:55:00,
2014-09-15 14:00:00,58.1,53.0,29.37,SW,225,0.0,0.0,83,0.00,,,0.00,WUHU21623XXSP,2014-09-15 18:00:00,
2014-09-15 14:05:00,58.6,53.5,29.37,SE,135,0.0,0.0,83,0.00,,,0.00,WUHU21623XXSP,2014-09-15 18:05:00,
2014-09-15 14:10:00,58.6,53.5,29.35,SE,135,1.1,1.1,83,0.00,,,0.00,WUHU21623XXSP,2014-09-15 18:10:00,
2014-09-15 14:15:00,58.8,53.3,29.29,SE,135,4.7,4.7,82,0.00,,,0.00,WUHU21623XXSP,2014-09-15 18:15:00,
2014-09-15 14:20:00,58.8,53.3,29.28,SE,135,4.7,4.7,82,0.00,,,0.00,WUHU21623XXSP,2014-09-15 18:20:00,
2014-09-15 14:25:00,58.8,53.3,29.28,SE,135,4.7,4.7,82,0.00,,,0.00,WUHU21623XXSP,2014-09-15 18:25:00,
2014-09-15 14:30:00,57.9,52.6,29.29,SSW,202,0.0,4.7,82,0.00,,,0.00,WUHU21623XXSP,2014-09-15 18:30:00,
2014-09-15 14:35:00,57.9,52.4,29.29,ESE,112,2.2,4.7,82,0.00,,,0.00,WUHU21623XXSP,2014-09-15 18:35:00,
2014-09-15 14:40:00,57.7,52.6,29.28,SSW,202,7.2,7.2,83,0.00,,,0.00,WUHU21623XXSP,2014-09-15 18:40:00,
2014-09-15 14:45:00,57.7,52.6,29.29,SSE,157,0.0,7.2,83,0.00,,,0.00,WUHU21623XXSP,2014-09-15 18:45:00,
2014-09-15 14:50:00,57.9,52.8,29.29,SE,135,0.0,0.0,83,0.00,,,0.00,WUHU21623XXSP,2014-09-15 18:50:00,
2014-09-15 14:55:00,57.9,52.8,29.31,SE,135,0.0,0.0,83,0.00,,,0.00,WUHU21623XXSP,2014-09-15 18:55:00,
2014-09-15 15:00:00,57.9,52.8,29.34,SE,135,0.0,0.0,83,0.00,,,0.00,WUHU21623XXSP,2014-09-15 19:00:00,
2014-09-15 15:05:00,57.9,52.8,29.34,SE,135,0.0,0.0,83,0.00,,,0.00,WUHU21623XXSP,2014-09-15 19:05:00,
2014-09-15 15:10:00,57.9,52.8,29.34,SE,135,0.0,0.0,83,0.00,,,0.00,WUHU21623XXSP,2014-09-15 19:10:00,
2014-09-15 15:47:00,57.6,53.4,29.30,NW,315,0.0,0.0,86,0.00,,,0.00,WUHU21623XXSP,2014-09-15 19:47:00,
2014-09-15 15:52:00,57.7,53.6,29.30,NW,315,0.0,0.0,86,0.00,,,0.00,WUHU21623XXSP,2014-09-15 19:52:00,
2014-09-15 15:57:00,57.7,53.6,29.30,NW,315,0.0,0.0,86,0.00,,,0.00,WUHU21623XXSP,2014-09-15 19:57:00,
2014-09-15 16:02:00,57.7,53.6,29.30,NW,315,0.0,0.0,86,0.00,,,0.00,WUHU21623XXSP,2014-09-15 20:02:00,
2014-09-15 16:30:00,58.8,54.3,29.29,SSE,157,0.0,0.0,85,0.00,,,0.00,WUHU21623XXSP,2014-09-15 20:30:00,
2014-09-15 16:35:00,59.2,54.3,29.28,SSE,157,0.0,0.0,84,0.00,,,0.00,WUHU21623XXSP,2014-09-15 20:35:00,
2014-09-15 16:40:00,59.2,54.4,29.28,SSE,157,0.0,0.0,84,0.00,,,0.00,WUHU21623XXSP,2014-09-15 20:40:00,
2014-09-15 16:45:00,59.2,54.4,29.29,SSE,157,0.0,0.0,84,0.00,,,0.00,WUHU21623XXSP,2014-09-15 20:45:00,
2014-09-15 16:50:00,59.2,54.4,29.29,SSE,157,0.0,0.0,84,0.00,,,0.00,WUHU21623XXSP,2014-09-15 20:50:00,
2014-09-15 16:52:00,59.2,54.4,29.29,SSE,157,0.0,0.0,84,0.00,,,0.00,WUHU21623XXSP,2014-09-15 20:52:00,
2014-09-15 16:57:00,59.2,54.4,29.29,SSE,157,0.0,0.0,84,0.00,,,0.00,WUHU21623XXSP,2014-09-15 20:57:00,
2014-09-15 17:26:00,58.1,53.3,29.30,West,270,0.0,0.0,84,0.00,,,0.00,WUHU21623XXSP,2014-09-15 21:26:00,
2014-09-15 17:31:00,58.1,53.3,29.29,West,270,0.0,0.0,84,0.00,,,0.00,WUHU21623XXSP,2014-09-15 21:31:00,
2014-09-15 17:36:00,57.9,53.3,29.29,West,270,0.0,0.0,84,0.00,,,0.00,WUHU21623XXSP,2014-09-15 21:36:00,
2014-09-15 17:40:00,57.9,53.1,29.29,West,270,0.0,0.0,84,0.00,,,0.00,WUHU21623XXSP,2014-09-15 21:40:00,
2014-09-15 17:45:00,57.9,53.1,29.29,West,270,0.0,0.0,84,0.00,,,0.00,WUHU21623XXSP,2014-09-15 21:45:00,
2014-09-15 17:50:00,57.9,53.1,29.29,West,270,0.0,0.0,84,0.00,,,0.00,WUHU21623XXSP,2014-09-15 21:50:00,
2014-09-15 17:55:00,57.9,53.1,29.29,West,270,0.0,0.0,84,0.00,,,0.00,WUHU21623XXSP,2014-09-15 21:55:00,
2014-09-15 18:00:00,57.9,53.1,29.30,West,270,0.0,0.0,84,0.00,,,0.00,WUHU21623XXSP,2014-09-15 22:00:00,
2014-09-15 18:34:00,57.0,52.2,29.30,WNW,292,0.0,0.0,84,0.00,,,0.00,WUHU21623XXSP,2014-09-15 22:34:00,
2014-09-15 18:35:00,57.0,52.2,29.30,WNW,292,0.0,0.0,84,0.00,,,0.00,WUHU21623XXSP,2014-09-15 22:35:00,
2014-09-15 18:40:00,57.0,52.2,29.30,WNW,292,0.0,0.0,84,0.00,,,0.00,WUHU21623XXSP,2014-09-15 22:40:00,
2014-09-15 18:45:00,57.0,52.2,29.30,WNW,292,0.0,0.0,84,0.00,,,0.00,WUHU21623XXSP,2014-09-15 22:45:00,
2014-09-15 18:50:00,57.0,52.5,29.30,West,270,0.0,0.0,85,0.00,,,0.00,WUHU21623XXSP,2014-09-15 22:50:00,
2014-09-15 18:55:00,57.0,52.5,29.31,West,270,0.0,0.0,85,0.00,,,0.00,WUHU21623XXSP,2014-09-15 22:55:00,
2014-09-15 19:00:00,57.0,52.5,29.31,West,270,0.0,0.0,85,0.00,,,0.00,WUHU21623XXSP,2014-09-15 23:00:00,
2014-09-15 19:05:00,57.4,52.9,29.31,West,270,0.0,0.0,85,0.00,,,0.00,WUHU21623XXSP,2014-09-15 23:05:00,
2014-09-15 19:10:00,57.2,52.7,29.31,West,270,0.0,0.0,85,0.00,,,0.00,WUHU21623XXSP,2014-09-15 23:10:00,
2014-09-15 19:14:00,57.0,52.5,29.31,West,270,0.0,0.0,85,0.00,,,0.00,WUHU21623XXSP,2014-09-15 23:14:00,
2014-09-15 19:19:00,57.0,52.5,29.31,West,270,0.0,0.0,85,0.00,,,0.00,WUHU21623XXSP,2014-09-15 23:19:00,
2014-09-15 19:24:00,57.0,52.5,29.31,West,270,0.0,0.0,85,0.00,,,0.00,WUHU21623XXSP,2014-09-15 23:24:00,